User: anonymous   Login
Location: Peebles
(55.6412°N, 3.1714°W)
Time: 07:05:03
(UTC+00:00)
Language:

COSMO-SKYMED 1 - Orbit

View from above orbital plane
View from above orbital plane
View from above satellite
View from above satellite

Ground track
Ground track

The orbit data is extracted from the following two-line orbital elements,

1 31598U 07023A   21336.81120621  .00000424  00000-0  59819-4 0  9990
2 31598  97.8837 158.3391 0001441  88.9564 271.1835 14.82160752783832
Epoch (UTC): 02 December 2021 19:28:08
Eccentricity: 0.0001441
inclination: 97.8837°
perigee height: 621 km
apogee height: 623 km
right ascension of ascending node: 158.3391°
argument of perigee: 88.9564°
revolutions per day: 14.82160752
mean anomaly at epoch: 271.1835°
orbit number at epoch: 78383

The dashed part of the orbit path shows where the satellite is in the earth's shadow,  

DLR